Location: Kalberh�ni
(46.4610°N, 7.2453°E)
Time: 21:11:57
(UTC+00:00)

USA 229 - Pass Details

Date: 26 October 2021
Orbit: 946 x 1266 km, 63.4° (Epoch: 25 November)

Event Time Altitude Azimuth Distance (km) Brightness Sun altitude
Exits shadow 04:04:13 13° 212° (SSW) 3,022 5.7 -21.2°
Drops below altitude 10° 04:05:04 10° 207° (SSW) 3,218 5.9 -21.0°
Sets 04:08:42 0° 193° (SSW) 4,201 6.7 -20.4°
